Location: LDNL
(36.4545°S, 141.6685°E)
Time: 16:39:26
(UTC+10:00)

Courier 1B Rocket - Pass Details

Date: 14 August 2022
Orbit: 920 x 1202 km, 28.2° (Epoch: 25 September)

Event Time Altitude Azimuth Distance (km) Brightness Sun altitude
Exits shadow 04:57:33 39° 337° (NNW) 1,724 6.0 -28.7°
Maximum altitude 04:59:14 44° 7° (N) 1,604 6.0 -28.3°
Drops below altitude 10° 05:06:23 10° 76° (ENE) 3,061 8.5 -26.9°
Sets 05:09:16 0° 82° (E) 3,987 9.5 -26.3°
